This demonstration page uses our WeatherBlox Daily Observations layout. Learn more.

Left ArrowRight Arrow

44.8408, -93.29828

Hourly Observations for November 17, 2016

Temp ( °F °C ) Dew Point ( °F °C ) Humidity (%) Winds ( mph kmh ) Pressure ( in mb ) Visibility ( mi km ) Precip ( " mm )
12:53 am 00:53 Cloudy 50 10 42 5.6 74 74 SE 8 13 29.60 1002 10 16 0.00 0.00
1:53 am 01:53 Cloudy 50 10 41 5 71 71 SE 6 9 29.60 1002 10 16 0.00 0.00
2:53 am 02:53 Cloudy 48 8.9 41 5 77 77 ESE 7 11 29.59 1002 8 13 0.00 0.00
3:53 am 03:53 Cloudy 48 8.9 41 5 77 77 E 6 9 29.58 1002 10 16 0.00 0.00
4:53 am 04:53 Cloudy 49 9.4 41 5 74 74 ENE 3 6 29.61 1003 10 16 0.00 0.00
5:53 am 05:53 Cloudy 48 8.9 41 5 77 77 E 7 11 29.59 1002 10 16 0.00 0.00
6:53 am 06:53 Cloudy 49 9.4 41 5 74 74 NE 5 7 29.62 1003 10 16 0.00 0.00
7:53 am 07:53 Mostly Cloudy 49 9.4 42 5.6 77 77 NE 7 11 29.62 1003 10 16 0.00 0.00
8:53 am 08:53 Mostly Cloudy 49 9.4 42 5.6 77 77 NE 7 11 29.62 1003 10 16 0.00 0.00
9:53 am 09:53 Cloudy 51 10.6 42 5.6 71 71 NE 8 13 29.63 1003 10 16 0.00 0.00
10:53 am 10:53 Cloudy 53 11.7 42 5.6 66 66 NE 8 13 29.64 1004 10 16 0.00 0.00
11:53 am 11:53 Mostly Cloudy 56 13.3 43 6.1 62 62 NNE 13 20 29.59 1002 10 16 0.00 0.00
12:53 pm 12:53 Mostly Cloudy 56 13.3 43 6.1 62 62 NE 15 24 29.59 1002 10 16 0.00 0.00
1:53 pm 13:53 Mostly Cloudy 56 13.3 43 6.1 62 62 NNE 14 22 29.60 1002 10 16 0.00 0.00
2:53 pm 14:53 Cloudy 55 12.8 42 5.6 62 62 NNE 15 24 29.61 1003 10 16 0.00 0.00
3:53 pm 15:53 Cloudy 54 12.2 43 6.1 67 67 NNE 9 15 29.66 1004 10 16 0.00 0.00
4:53 pm 16:53 Cloudy 54 12.2 42 5.6 64 64 NE 18 30 29.64 1004 10 16 0.00 0.00
5:53 pm 17:53 Cloudy 54 12.2 42 5.6 64 64 NNE 10 17 29.66 1005 10 16 0.00 0.00
6:53 pm 18:53 Cloudy 51 10.6 41 5 69 69 NNE 15 24 29.67 1005 10 16 0.00 0.00
7:53 pm 19:53 Cloudy 51 10.6 40 4.4 66 66 NNE 17 28 29.68 1005 10 16 0.00 0.00
8:53 pm 20:53 Cloudy 50 10 40 4.4 68 68 NE 17 28 29.67 1005 10 16 0.00 0.00
9:53 pm 21:53 Cloudy 50 10 40 4.4 68 68 NE 10 17 29.67 1005 10 16 0.00 0.00
10:53 pm 22:53 Mostly Clear 48 8.9 39 3.9 71 71 NNE 9 15 29.67 1005 10 16 0.00 0.00
11:53 pm 23:53 Mostly Cloudy 47 8.3 39 3.9 74 74 N 10 17 29.69 1005 10 16 0.00 0.00

Powered by AerisWeather